Lid_Strength_Index
2 2 2 2 2 2 2 2 1 2 3 3 5 6 6 7 7 9 9 9 11 12 12 12 13 14 14 14 14 14 15 15 17 16 14 14 14 14 12 11 10 11 10
2 2 2 2 2 2 2 1 1 3 3 4 5 6 6 8 8 8 8 10 12 12 12 13 13 13 15 15 15 15 15 16 17 17 16 15 14 13 12 12 11 10 10
2 2 2 2 2 2 2 1 2 3 4 5 6 6 8 7 9 9 9 12 13 13 14 13 13 13 14 14 14 14 15 14 16 16 16 15 14 13 12 12 11 11 9
3 3 3 3 2 2 2 2 2 4 5 6 6 7 6 8 9 10 13 14 14 14 13 12 12 13 14 14 13 14 15 16 16 16 16 16 15 13 14 14 12 10 10
3 3 3 2 2 2 2 2 3 4 5 6 7 8 8 9 11 13 14 15 15 14 13 12 11 9 8 10 14 15 16 16 16 16 16 16 16 15 14 13 12 11 10
3 3 3 3 2 2 2 5 4 5 6 7 8 8 9 10 11 11 14 16 15 15 15 14 14 12 10 9 10 9 11 15 16 16 16 17 16 15 14 13 14 12 14
3 3 3 2 3 3 4 5 7 7 7 7 8 10 11 12 11 12 13 16 16 16 16 15 14 13 14 15 12 11 10 9 10 14 16 16 15 13 14 13 12 12 13
3 3 3 3 3 6 7 7 8 9 9 11 11 11 11 12 14 14 14 16 16 16 16 16 16 16 14 15 15 14 14 13 12 12 14 13 13 12 11 12 13 13 12
4 4 3 4 5 7 8 9 9 10 10 12 12 12 13 15 14 13 15 16 16 16 16 16 16 15 12 12 15 15 15 14 11 10 9 9 9 9 8 11 12 13 13
4 4 6 5 7 9 10 10 10 10 12 13 13 14 14 15 13 14 14 15 16 16 17 15 12 13 12 12 15 15 15 16 14 13 13 11 11 11 9 11 12 13 14
7 6 6 7 8 9 11 11 12 13 13 14 15 15 15 15 15 13 13 15 16 16 15 14 13 11 11 11 12 14 14 15 13 14 13 12 12 11 10 10 11 13 13
9 10 11 11 10 11 12 12 13 14 15 15 15 14 14 15 13 13 13 14 13 14 14 14 12 11 11 12 12 12 11 13 14 14 13 13 13 12 11 11 11 12 11
10 11 11 11 11 12 13 13 14 14 15 14 14 14 15 13 14 12 13 12 12 13 12 11 11 12 12 12 12 11 12 13 13 14 15 14 13 12 11 11 11 11 11
11 12 12 12 12 13 13 12 13 14 13 13 14 15 15 15 15 14 12 11 10 11 11 12 12 12 12 13 14 13 13 12 14 15 15 15 13 12 12 11 13 12 13
12 13 13 13 13 14 13 13 13 13 13 13 14 14 15 15 15 13 12 13 13 13 13 14 15 16 16 16 16 15 14 14 14 14 15 14 13 13 13 12 13 13 14
14 14 14 14 14 14 15 15 14 14 14 14 14 14 15 13 12 11 11 12 12 12 14 15 16 16 17 17 16 16 15 14 15 15 15 15 14 14 13 13 13 14 14
13 13 13 14 14 14 15 15 16 15 14 14 14 13 12 12 11 12 12 13 13 13 15 16 16 16 16 16 16 16 16 16 16 15 16 15 15 14 14 14 14 14 14
14 13 14 14 14 15 15 15 15 16 16 16 13 12 12 12 12 12 12 12 14 14 15 16 16 17 16 17 17 17 17 16 16 16 16 16 15 15 14 15 15 15 15
14 15 15 14 14 15 15 15 15 15 15 15 13 12 12 12 12 12 12 14 15 16 15 16 16 16 17 17 18 18 17 17 16 16 16 16 16 15 15 15 15 14 14
15 15 15 15 15 15 15 15 15 15 14 13 13 14 13 13 14 15 14 15 15 16 16 16 16 16 17 18 18 18 18 17 17 17 17 17 16 16 15 15 15 15 15
14 15 15 15 16 15 15 14 13 13 13 13 14 14 14 14 15 15 15 15 15 15 15 16 16 17 17 18 18 18 18 17 17 17 17 17 17 16 15 15 15 15 15
15 15 15 15 14 14 13 12 12 13 13 14 14 14 14 14 15 15 15 15 15 15 15 15 16 16 17 17 17 17 17 17 17 16 16 17 17 16 15 15 15 15 14
15 15 15 13 13 12 12 13 13 13 13 13 13 14 14 15 15 15 14 14 14 14 14 15 15 16 16 16 17 17 17 17 16 16 16 16 16 16 16 16 15 15 15
14 13 12 11 12 12 13 13 13 13 13 13 13 14 14 15 14 14 14 13 13 14 14 15 15 15 15 16 16 16 16 15 15 15 15 15 16 15 16 15 15 15 14
13 11 12 12 12 13 13 13 13 13 12 13 13 13 14 13 13 13 13 13 13 13 14 15 15 14 15 15 15 15 14 13 14 14 15 15 15 15 16 16 15 15 14
11 11 12 13 13 13 13 13 13 13 13 13 13 13 13 12 12 12 12 13 13 13 14 14 14 14 14 14 14 13 13 13 14 14 15 15 15 16 16 15 15 15 15